Location: *
(46.4709°S, 176.7360°W)
Time: 08:31:05
(UTC+00:00)

Daily predictions for brighter satellites

Satellite Brightness Start Highest point End
(mag) Time Altitude Azimuth Time Altitude Azimuth Time Altitude Azimuth
Cosmos 2322 Rocket 4.4 14:02:49 20° SE 14:02:49 20° SE 14:04:36 10° SSE
CZ-4C R/B 3.9 14:04:20 40° ESE 14:04:20 40° ESE 14:08:39 10° SE
SL-16 R/B 4.1 13:58:14 10° SSE 14:01:42 31° SE 14:01:42 31° SE
USA 215 4.2 14:07:22 10° E 14:12:29 42° SE 14:12:29 42° SE
ATLAS 2AS CENTAUR R/B 4.5 14:18:08 19° S 14:18:08 19° S 14:21:35 10° SSE
Cosmos 2219 Rocket 3.7 14:51:45 29° ENE 14:52:05 30° ENE 14:56:57 10° SE
Cosmos 2322 4.0 15:13:57 63° ESE 15:13:57 63° ESE 15:19:05 10° SSE
COSMOS 2428 3.7 15:14:41 39° NE 15:15:39 42° ENE 15:21:02 10° SE
Cosmos 2333 4.5 15:18:07 67° E 15:18:07 67° E 15:23:39 10° SSE
FENGYUN 3A 4.5 15:19:38 10° NE 15:24:50 49° ESE 15:30:06 10° S
Cosmos 1241 Rocket 4.5 15:26:31 75° N 15:27:03 82° ENE 15:33:42 10° SE
Cosmos 1975 4.2 15:31:47 40° ESE 15:31:47 40° ESE 15:34:56 10° SSE
USA 229 DEB 3.5 15:33:07 57° SW 15:34:38 82° NW 15:41:12 10° NNE
USA 229 3.5 15:33:09 56° SW 15:34:46 83° NW 15:41:19 10° NNE
SL-16 R/B 3.7 15:37:05 24° SSW 15:37:05 24° SSW 15:40:27 10° S
Cosmos 2112 Rocket 4.3 15:38:02 61° SSW 15:38:02 61° SSW 15:42:41 10° SSE
Cosmos 2360 Rocket 2.8 15:38:53 44° SSW 15:38:53 44° SSW 15:43:27 10° SSE
H-2A R/B 2.4 15:38:35 10° SSE 15:43:01 70° E 15:43:01 70° E
Cosmos 2322 Rocket 3.6 15:44:38 25° SSW 15:44:38 25° SSW 15:48:16 10° S
Meteor 2-13 Rocket 4.3 15:37:22 10° SSW 15:43:35 79° W 15:49:41 10° N
Sich 1 Rocket 4.1 15:43:09 57° NE 15:43:38 61° E 15:48:13 10° SSE
NOSS 3-1 (A) 3.3 15:41:11 31° SW 15:44:24 82° SE 15:50:00 10° NE
STARLINK-1200 4.3 15:46:11 55° ESE 15:46:11 55° ESE 15:49:34 10° ESE
Cosmos 1980 Rocket 4.5 15:47:06 11° SSW 15:47:06 11° SSW 15:48:11 10° SSW
SL-16 R/B 3.4 15:42:08 10° S 15:46:46 33° SW 15:46:46 33° SW
Cosmos 1420 Rocket 4.4 15:43:03 10° SSW 15:48:22 64° ESE 15:53:39 10° NNE
STARLINK-1192 4.0 15:50:58 62° ESE 15:50:58 62° ESE 15:54:33 10° ESE
CZ-4C R/B 3.3 15:49:32 41° WSW 15:50:38 44° SW 15:57:01 10° SSE
Okean O Rocket 3.7 15:47:00 10° NE 15:50:50 28° ESE 15:54:42 10° S
STARLINK-1108 4.4 15:53:46 46° NE 15:53:46 46° NE 15:56:48 10° NE
STARLINK-1121 4.4 15:54:28 45° S 15:54:42 45° SSE 15:58:46 10° E
STARLINK-1244 3.8 15:55:45 70° ESE 15:55:45 70° ESE 15:59:32 10° ESE
Cosmos 2333 Rocket 2.1 15:54:19 56° NNW 15:55:38 87° WSW 16:01:30 10° SSE
USA 215 3.2 15:49:40 10° NE 15:56:17 85° NW 15:59:50 31° SW
Cosmos 2084 4.0 15:57:18 48° S 15:57:18 48° S 16:00:46 10° SE
ISS -2.3 15:57:26 37° SE 15:57:26 37° SE 16:00:06 10° E
STARLINK-1071 4.2 15:58:33 50° NNE 15:58:33 50° NNE 16:01:45 10° NE
PSLV R/B 4.1 15:54:42 10° NNE 15:58:31 64° ESE 16:02:19 10° S
STARLINK-1106 4.3 15:59:15 45° S 15:59:42 47° SSE 16:03:48 10° E
STARLINK-1138 3.7 16:00:32 78° SE 16:00:32 78° SE 16:04:31 10° ESE
Cosmos 2056 Rocket 4.5 16:02:49 33° NNW 16:02:49 33° NNW 16:05:54 10° N
Cosmos 2237 Rocket 3.5 15:55:23 10° N 16:00:37 38° ENE 16:05:53 10° SE
STARLINK-1110 4.0 16:03:21 52° NNE 16:03:21 52° NNE 16:06:43 10° NE
Cosmos 2026 Rocket 4.4 15:57:25 10° SSW 16:02:47 43° WSW 16:02:47 43° WSW
NOSS 2-3 (C) 4.3 15:56:24 10° SW 16:03:39 87° NW 16:09:06 10° NE
STARLINK-1112 4.3 16:04:02 44° SSW 16:04:42 49° SSE 16:08:49 10° E
STARLINK-1143 3.6 16:05:18 82° S 16:05:18 82° S 16:09:29 10° ESE
ATLAS CENTAUR R/B 3.7 16:06:00 13° SSW 16:06:00 13° SSW 16:07:40 10° S
STARLINK-1124 3.9 16:08:06 54° N 16:08:06 54° N 16:11:38 10° NE
BREEZE-M DEB (TANK) 3.0 16:09:30 52° S 16:09:30 52° S 16:14:31 10° E
Cosmos 2278 Rocket 2.4 16:03:57 10° SSW 16:09:42 73° ESE 16:15:22 10° NNE
STARLINK-1128 4.3 16:08:49 43° SSW 16:09:43 51° SSE 16:13:50 10° E
STARLINK-1241 3.5 16:10:07 76° SW 16:10:15 77° SSW 16:14:30 10° ESE
NOSS 3-1 (C) 3.5 16:11:15 45° WNW 16:11:15 45° WNW 16:16:16 10° N
STARLINK-1122 3.9 16:12:54 54° N 16:12:54 54° N 16:16:36 10° NE
BREEZE M DEB (TANK) 3.8 16:11:32 26° N 16:12:58 37° NE 16:20:33 10° ESE
Cosmos 1634 Rocket 4.4 16:12:41 40° W 16:13:15 41° WSW 16:19:16 10° S
CZ-4B R/B 3.9 16:08:49 10° NE 16:14:22 57° ESE 16:19:56 10° S
STARLINK-1113 4.2 16:13:39 41° SSW 16:14:46 54° SSE 16:18:54 10° E
Cosmos 1782 Rocket 4.2 16:15:44 40° SW 16:15:44 40° SW 16:19:17 10° S
STARLINK-1239 3.5 16:14:52 68° WSW 16:15:12 72° SSW 16:19:27 10° ESE
Cosmos 1025 Rocket 3.6 16:11:59 10° S 16:16:25 61° ESE 16:20:48 10° NNE
STARLINK-1126 3.9 16:17:41 52° NNW 16:17:41 52° NNW 16:21:30 10° NE
Cosmos 2292 Rocket 4.1 16:14:20 10° S 16:18:37 72° E 16:24:18 10° NNE
SJ-12 3.8 16:14:43 10° N 16:18:47 65° WNW 16:22:57 10° SSW
Cosmos 2266 Rocket 4.0 16:13:18 10° S 16:19:33 84° E 16:25:52 10° N
STARLINK-1119 4.1 16:18:23 38° SW 16:19:42 57° SSE 16:23:52 10° ENE
STARLINK-1240 3.6 16:19:40 60° WSW 16:20:12 68° SSW 16:24:26 10° ESE
Landsat 5 3.3 16:16:16 10° S 16:20:33 68° WSW 16:21:23 52° NW
MOS 1-B 4.2 16:16:12 10° NNE 16:22:01 79° WNW 16:27:55 10° SSW
Cosmos 1242 Rocket 4.1 16:18:48 10° S 16:22:19 38° ESE 16:25:45 10° NE
SL-08 R/B 4.0 16:18:00 10° S 16:21:55 35° SW 16:21:55 35° SW
STARLINK-1082 3.9 16:22:29 49° NW 16:22:29 49° NW 16:26:27 10° NE
ALOS 2.3 16:18:53 10° N 16:23:30 54° W 16:28:10 10° SSW
STARLINK-1114 4.0 16:23:11 36° SW 16:24:42 60° SSE 16:28:53 10° ENE
STARLINK-1216 3.7 16:24:27 53° WSW 16:25:11 64° SSW 16:29:25 10° ESE
Meteor 1-28 Rocket 4.4 16:22:04 10° S 16:24:22 29° SSW 16:24:22 29° SSW
Meteor 2-9 Rocket 4.1 16:21:40 13° NNW 16:26:41 72° WSW 16:32:14 10° S
STARLINK-1100 3.9 16:27:15 45° NW 16:27:21 45° NW 16:31:21 10° NNE
STARLINK-1130 (DARKSAT) 4.0 16:27:57 33° SW 16:29:41 63° SSE 16:33:52 10° ENE
STARLINK-1237 3.8 16:29:13 47° WSW 16:30:10 61° SSW 16:34:22 10° ESE
Cosmos 1707 3.0 16:27:40 10° S 16:31:36 68° E 16:35:29 10° NNE
CZ-4C R/B 4.3 16:28:20 10° S 16:30:33 27° SSW 16:30:33 27° SSW
STARLINK-1083 4.0 16:32:00 41° NW 16:32:16 42° NW 16:36:14 10° NNE
BREEZE-M DEB (TANK) 3.9 16:31:24 30° WSW 16:33:57 70° S 16:51:34 10° E
STARLINK-1084 3.9 16:32:45 30° SW 16:34:41 67° SSE 16:38:53 10° ENE
STARLINK-1202 3.8 16:34:02 41° WSW 16:35:11 58° SSW 16:39:23 10° ESE
Cosmos 2219 Rocket 2.5 16:33:32 31° WNW 16:35:47 48° WSW 16:41:19 10° SSE
Cosmos 1452 Rocket 3.4 16:30:40 10° SSW 16:36:01 74° WNW 16:41:17 10° NNE
STARLINK-1125 4.2 16:36:47 37° WNW 16:37:13 38° NW 16:41:08 10° NNE
Cosmos 972 Rocket 4.4 16:32:12 10° SSW 16:38:45 62° WNW 16:44:30 10° N
STARLINK-1098 3.8 16:37:32 28° SW 16:39:40 71° SSE 16:43:53 10° ENE
Cosmos 1536 Rocket 3.5 16:35:15 10° S 16:39:48 85° W 16:44:19 10° N
Cosmos 1544 3.8 16:40:14 34° WSW 16:40:14 34° WSW 16:43:23 10° S
NOAA 6 4.0 16:36:33 10° NNE 16:41:46 80° WNW 16:47:04 10° SSW
Cosmos 1271 Rocket 3.4 16:37:54 10° S 16:41:59 59° ESE 16:45:59 10° NNE
STARLINK-1109 4.3 16:41:33 33° WNW 16:42:11 35° NW 16:46:01 10° NNE
SAR-Lupe-4 3.8 16:38:58 10° S 16:42:33 48° WSW 16:43:42 34° WNW
Cosmos 1655 Rocket 4.2 16:36:27 10° SSW 16:42:38 49° W 16:48:46 10° NNW
CZ-3 R/B 4.2 16:28:08 21° WNW 16:42:55 35° NNW 16:51:38 10° NE
CZ-4B R/B 1.2 16:40:36 10° S 16:43:58 82° WSW 16:47:22 10° NNW
STARLINK-1123 3.7 16:42:19 26° SW 16:44:40 75° SSE 16:48:52 10° ENE
STARLINK-1246 4.0 16:43:35 33° W 16:45:10 52° SSW 16:49:19 10° ESE
STARLINK-1091 4.4 16:46:21 30° WNW 16:47:08 33° NW 16:50:54 10° NNE
STARLINK-1203 4.1 16:47:00 29° WSW 16:48:49 49° SSW 16:52:59 10° ESE
STARLINK-1097 3.7 16:47:05 23° WSW 16:49:39 80° SSE 16:53:51 10° ENE
STARLINK-1224 4.1 16:48:22 29° W 16:50:11 50° SSW 16:54:19 10° ESE
Cosmos 1356 3.3 16:46:59 10° NNW 16:50:28 79° W 16:54:01 10° S
STARLINK-1099 3.6 16:51:53 21° WSW 16:54:38 85° SSE 16:58:51 10° ENE
STARLINK-1225 4.1 16:53:10 26° W 16:55:11 48° SSW 16:59:18 10° ESE
STARLINK-1233 4.4 16:54:07 22° SW 16:55:12 27° S 16:58:00 10° SE
STARLINK-1212 4.4 16:54:31 22° SW 16:55:38 27° S 16:58:26 10° SE
Meteor 2-19 Rocket 4.4 16:49:45 10° SSW 16:55:47 59° W 17:01:44 10° N
STARLINK-1105 4.4 16:54:58 21° SW 16:56:06 27° S 16:58:53 10° SE
STARLINK-1206 4.4 16:55:22 21° SW 16:56:32 27° S 16:59:21 10° SE
STARLINK-1247 4.4 16:55:49 21° SW 16:56:59 27° S 16:59:47 10° SE
STARLINK-1227 4.4 16:56:16 21° SW 16:57:28 27° S 17:00:15 10° SE
STARLINK-1218 4.4 16:56:41 21° SW 16:57:54 27° S 17:00:42 10° SE
ERBS 4.4 16:56:56 14° SW 16:58:13 16° SSW 17:00:30 10° SSE
STARLINK-1226 4.4 16:57:07 21° SW 16:58:21 26° S 17:01:08 10° SE
STARLINK-1254 4.4 16:57:34 20° SW 16:58:49 26° S 17:01:35 10° SE
STARLINK-1215 4.4 16:57:59 20° SW 16:59:16 26° S 17:02:03 10° SE
STARLINK-1104 3.6 16:56:39 19° WSW 16:59:36 90° W 17:03:49 10° ENE
STARLINK-1231 4.4 16:58:25 20° SW 16:59:42 26° S 17:02:30 10° SE
COSMOS 2428 3.4 16:56:44 20° WNW 16:59:59 36° SW 17:05:18 10° SSE
STARLINK-1230 4.2 16:57:57 23° W 17:00:11 46° SSW 17:04:17 10° ESE
YAOGAN 6 4.5 16:57:12 10° NE 17:00:26 33° ESE 17:03:42 10° S
Cosmos 304 Rocket 4.1 16:55:36 10° SSW 17:00:30 70° ESE 17:05:21 10° NNE
STARLINK-1232 4.4 16:59:17 20° SW 17:00:37 26° S 17:03:24 10° SE
PAYLOAD B 4.5 16:55:39 10° N 17:01:03 48° W 17:06:33 10° SSW
STARLINK-1217 4.4 16:59:43 19° SW 17:01:05 26° S 17:03:52 10° SE
STARLINK-1208 4.4 17:00:11 19° SW 17:01:33 26° S 17:04:19 10° SE
STARLINK-1229 4.4 17:00:35 19° SW 17:01:58 26° S 17:04:46 10° SE
STARLINK-1271 4.4 17:01:02 19° SW 17:02:27 26° S 17:05:13 10° SE
SL-8 R/B 3.8 16:59:22 20° WSW 17:02:48 83° SSE 17:07:42 10° ENE
STARLINK-1270 4.4 17:01:27 19° SW 17:02:54 26° S 17:05:40 10° SE
Cosmos 1980 3.7 16:57:39 10° NW 17:03:18 70° WSW 17:09:02 10° SSE
STARLINK-1154 4.4 17:01:52 19° SW 17:03:20 26° S 17:06:07 10° SE
STARLINK-1197 4.5 17:02:45 18° SW 17:04:15 26° S 17:07:02 10° SE
STARLINK-1144 3.6 17:01:26 18° WSW 17:04:35 85° NNW 17:08:47 10° NE
STARLINK-1189 4.5 17:03:10 18° SW 17:04:42 26° S 17:07:28 10° SE
STARLINK-1198 4.5 17:03:37 18° SW 17:05:09 26° S 17:07:56 10° SE
STARLINK-1243 4.3 17:02:43 21° W 17:05:11 44° SSW 17:09:15 10° ESE
STARLINK-1188 4.5 17:04:03 18° SW 17:05:36 26° S 17:08:22 10° SE
Cosmos 1300 Rocket 4.1 17:02:43 10° NW 17:06:52 38° WSW 17:11:07 10° S
STARLINK-1199 4.5 17:05:59 17° SW 17:07:37 25° S 17:10:21 10° SE
Cosmos 1975 4.5 17:07:36 17° WSW 17:07:40 17° WSW 17:10:26 10° SSW
STARLINK-1191 4.5 17:06:25 17° SW 17:08:04 25° S 17:10:49 10° SE
STARLINK-1210 4.5 17:06:51 17° SW 17:08:31 25° S 17:11:16 10° SE
STARLINK-1221 4.5 17:07:16 17° SW 17:08:58 25° S 17:11:42 10° SE
STARLINK-1219 4.5 17:07:43 16° SW 17:09:26 25° S 17:12:10 10° SE
STARLINK-1103 3.6 17:06:13 16° WSW 17:09:33 79° NNW 17:13:45 10° NE
STARLINK-1222 4.5 17:08:08 16° SW 17:09:52 25° S 17:12:36 10° SE
STARLINK-1236 4.3 17:07:30 19° W 17:10:11 43° SSW 17:14:14 10° ESE
STARLINK-1211 4.5 17:08:35 16° SW 17:10:21 25° S 17:13:05 10° SE
STARLINK-1214 4.5 17:09:01 16° SW 17:10:47 25° S 17:13:31 10° SE
STARLINK-1245 4.5 17:09:25 16° SW 17:11:13 25° S 17:13:59 10° SE
Abrixas rocket 1.9 17:09:47 22° W 17:11:33 79° SSW 17:14:36 10° ESE
STARLINK-1238 4.5 17:09:53 16° SW 17:11:42 25° S 17:14:26 10° SE
STARLINK-1101 3.6 17:11:00 14° WSW 17:14:32 74° NNW 17:18:43 10° NE
CZ-4 R/B 4.0 17:11:47 10° ENE 17:15:17 25° ESE 17:18:49 10° S
H-2A R/B 3.8 17:15:50 10° SSW 17:18:35 16° WSW 17:20:06 14° W
STARLINK-1102 3.7 17:15:48 13° WSW 17:19:31 69° NW 17:23:42 10° NE
Okean 2 Rocket 4.2 17:16:00 10° NW 17:19:47 25° WSW 17:23:34 10° SSW
STARLINK-1269 4.4 17:17:03 15° W 17:20:11 40° SSW 17:24:12 10° ESE
Cosmos 1689 Rocket 2.3 17:17:54 10° S 17:20:55 48° WSW 17:23:52 10° NNW
Cosmos 2151 Rocket 4.3 17:17:03 10° NW 17:21:09 34° WSW 17:25:20 10° S
SL-16 R/B 2.8 17:16:00 10° N 17:21:37 63° ENE 17:27:19 10° SSE
Cosmos 2360 Rocket 4.1 17:21:03 10° WSW 17:23:23 12° SW 17:25:43 10° S
STARLINK-1111 3.7 17:20:34 12° WSW 17:24:28 64° NW 17:28:37 10° NE
STARLINK-1200 4.5 17:21:50 14° W 17:25:12 39° SSW 17:29:11 10° ESE
PSLV R/B 4.1 17:22:13 10° SSE 17:26:30 83° ENE 17:30:45 10° NNW
Okean O Rocket 2.3 17:22:58 10° NNW 17:27:05 34° W 17:31:14 10° SSW
Meteor 2-21 4.5 17:21:41 10° S 17:27:59 82° W 17:34:09 10° N
STARLINK-1073 3.8 17:25:21 11° WSW 17:29:25 59° NW 17:33:33 10° NE
NOSS 0 Rocket 4.4 17:25:52 10° WNW 17:31:45 43° SW 17:37:44 10° SSE
Meteor 2-5 Rocket 4.1 17:25:59 10° S 17:32:00 81° ESE 17:38:00 10° NNE
Cosmos 494 Rocket 4.0 17:26:48 10° NNW 17:32:02 77° WSW 17:37:18 10° SSE
COSMO-SKYMED 1 4.2 17:28:17 10° SSE 17:32:30 41° E 17:36:38 10° NNE
ISS -3.4 17:30:26 11° WSW 17:33:43 54° NNW 17:37:05 10° NE
Cosmos 371 Rocket 4.2 17:29:58 10° SW 17:34:11 29° W 17:38:20 10° NNW
STARLINK-1121 3.9 17:30:15 10° WSW 17:34:23 54° NW 17:38:29 10° NE
Cosmos 1553 Rocket 4.3 17:28:29 10° N 17:34:56 82° E 17:41:24 10° S
Helios 1A Rocket 3.3 17:32:53 10° N 17:36:51 44° W 17:40:55 10° SSW
Envisat 3.0 17:31:52 10° N 17:36:58 71° WNW 17:42:09 10° SSW
AQUARIUS 4.3 17:32:41 10° N 17:37:09 57° W 17:41:40 10° SSW
STARLINK-1106 4.0 17:35:16 10° WSW 17:39:22 50° NW 17:43:25 10° NE
Cosmos 1626 3.9 17:35:53 10° S 17:39:28 38° ESE 17:42:59 10° NE
USA 215 4.3 17:34:29 10° N 17:39:53 27° NW 17:45:20 10° WSW
Cosmos 2333 Rocket 3.7 17:36:40 10° W 17:40:48 20° SW 17:44:58 10° S
CZ-4C R/B 4.2 17:35:54 10° WSW 17:40:55 20° SSW 17:45:23 10° SSE
Cosmos 1892 Rocket 3.7 17:37:51 10° S 17:42:18 85° E 17:46:42 10° N
STARLINK-1112 4.1 17:40:16 10° WSW 17:44:19 46° NW 17:48:20 10° NE
Cosmos 2237 Rocket 2.8 17:39:20 10° WNW 17:44:40 39° SW 17:50:03 10° SSE
CZ-3A R/B 4.4 17:40:43 10° WSW 17:46:37 53° SSE 17:58:56 10° E
Cosmos 2084 Rocket 3.4 17:43:29 10° SW 17:47:47 74° NW 17:52:01 10° NNE
STARLINK-1128 4.2 17:45:16 10° WSW 17:49:17 43° NW 17:53:15 10° NNE
Cosmos 1766 3.2 17:46:08 10° NNW 17:50:03 77° W 17:54:04 10° S
